This is the latest recevied weather packets stored in our database for station/object W1SCW. If no packets are shown the sender has not sent any weather packets the latest 10 day(s).
| Time | Temp. | Humidity | Pressure | Rain* | Wind** | Luminosity | Snow |
|---|---|---|---|---|---|---|---|
| 1777555238 | 21.67° C | 99% | 1008.8 hPa | 0 mm | - | 142 W/m² | - |
| 1777554934 | 21.67° C | 99% | 1008.9 hPa | 0 mm | - | 105 W/m² | - |
| 1777554626 | 21.67° C | 99% | 1008.7 hPa | 0 mm | - | 119 W/m² | - |
| 1777554322 | 21.67° C | 99% | 1008.4 hPa | 0 mm | - | 136 W/m² | - |
| 1777554020 | 21.67° C | 99% | 1008.6 hPa | 0 mm | - | 113 W/m² | - |
| 1777553716 | 21.11° C | 99% | 1008.7 hPa | 0 mm | - | 121 W/m² | - |
| 1777553413 | 21.11° C | 99% | 1008.7 hPa | 0 mm | - | 92 W/m² | - |
| 1777553109 | 21.11° C | 99% | 1008.5 hPa | 0 mm | - | 71 W/m² | - |
| 1777552808 | 21.11° C | 99% | 1008.3 hPa | 0 mm | - | 58 W/m² | - |
| 1777552504 | 21.11° C | 99% | 1008.3 hPa | 0 mm | - | 22 W/m² | - |
| 1777552200 | 21.11° C | 99% | 1008.7 hPa | 0 mm | - | 14 W/m² | - |
| 1777551898 | 21.11° C | 99% | 1008.7 hPa | 0 mm | - | 9 W/m² | - |
| 1777551595 | 21.11° C | 99% | 1008.9 hPa | 0 mm | - | 7 W/m² | - |
| 1777551292 | 21.11° C | 99% | 1008.9 hPa | 0 mm | - | 5 W/m² | - |
| 1777550989 | 21.11° C | 99% | 1008.8 hPa | 0.51 mm | - | 5 W/m² | - |
| 1777550686 | 21.11° C | 99% | 1008.5 hPa | 0.51 mm | - | 4 W/m² | - |
| 1777550382 | 21.11° C | 99% | 1008.8 hPa | 0.51 mm | - | 2 W/m² | - |
| 1777550078 | 21.11° C | 99% | 1008.6 hPa | 1.27 mm | - | 1 W/m² | - |
| 1777549775 | 21.11° C | 99% | 1008.7 hPa | 0.51 mm | - | 1 W/m² | - |
| 1777549471 | 21.67° C | 99% | 1008.8 hPa | 0 mm | - | 0 W/m² | - |
| 1777549167 | 21.67° C | 99% | 1008.7 hPa | 0 mm | - | 0 W/m² | - |
| 1777548864 | 21.11° C | 99% | 1008.7 hPa | 0 mm | - | 0 W/m² | - |
| 1777548561 | 21.11° C | 99% | 1008.7 hPa | 0.51 mm | - | 0 W/m² | - |
| 1777548257 | 21.11° C | 99% | 1008.5 hPa | 0.51 mm | - | 0 W/m² | - |
| 1777547954 | 21.11° C | 99% | 1008.2 hPa | 0 mm | - | 0 W/m² | - |
* Rain latest hour (hover to see other rain measurements)
** Current wind speed in m/s (hover to see current wind gust speed)